Regional Weather Roundup
Issued by NWS

Home | Current Version | Previous Version | Graphics & Text | Print | Product List | Glossary On
Versions: 1 2 3 4 5 6 7 8 9 10 11 12 13 14 15 16 17 18 19 20 21 22 23 24 25 26 27 28 29 30 31 32 33 34 35 36 37 38 39 40 41 42 43 44 45 46 47 48 49 50
000
ASUS45 KTFX 181019
RWRMT
MONTANA HOURLY WEATHER ROUNDUP
NATIONAL WEATHER SERVICE GREAT FALLS MT
419 AM MDT FRI APR 18 2014

NOTE: "FAIR" INDICATES FEW OR NO CLOUDS BELOW 12000 FEET WITH NO
SIGNIFICANT WEATHER AND/OR OBSTRUCTIONS TO VISIBILITY.

* THESE STATIONS ARE NOT UNDER NWS QUALITY CONTROL. THEY DO NOT
   REPORT WEATHER SUCH AS PRECIPITATION OR FOG.

MTZ001>007-043-181100-
WEST OF THE DIVIDE
CITY           SKY/WX    TMP DP  RH WIND       PRES   REMARKS
KALISPELL      CLOUDY    45 N/A N/A S9        29.70F
MISSOULA       CLOUDY    45  43  93 W5        29.79R
BUTTE          LGT RAIN  39  37  93 NW7       29.78R WCI  34
MULLAN PASS    LGT SNOW  30  30 100 SW15G26   29.72F VSB 3/4  WCI  19
* ESSEX        N/A       35  34  96 E1         N/A
* LINCOLN      N/A       41  40  96 W3G9       N/A
* LOOKOUT PASS N/A       37  35  92 S8G15      N/A   WCI  31
* POLSON       N/A       42  41  96 SW2G7      N/A
* SEELEY LAKE  N/A       38  37  96 W1         N/A
* THOMP F APT  CLOUDY    44  23  43 E7G14      N/A
* YAAK HILL    N/A       42  40  93 N/A        N/A
$$

MTZ008-052>055-181100-
SOUTHWEST MONTANA
CITY           SKY/WX    TMP DP  RH WIND       PRES   REMARKS
BOZEMAN        CLOUDY    46  32  58 CALM      29.67S
DILLON         CLOUDY    52  32  47 W8        29.71R
W YELLOWSTONE  N/A       41  27  58 SW6G11     N/A
* THREE FORKS  CLOUDY    57  30  36 SW11G16    N/A
* BOULDER HILL N/A       42  32  68 VRB4G14    N/A
* MONIDA PASS  N/A       40  25  55 E15G20     N/A   WCI  32
* RAYNOLDS PAS N/A       40  23  51 S22G29     N/A   WCI  30
* WHITEHALL    N/A       55  34  45 W8G15      N/A
* WISE RIVER   N/A       40  38  93 W8G16      N/A   WCI  35
$$

MTZ009>010-012-014-046-048-049-054-181100-
EAST SLOPES AND CENTRAL MONTANA
CITY           SKY/WX    TMP DP  RH WIND       PRES   REMARKS
CUT BANK       CLOUDY    45  34  65 W8        29.63S
GREAT FALLS    LGT RAIN  45  43  93 S12       29.66F
HELENA         CLOUDY    46  37  71 W9        29.72R
MALMSTROM AFB  LGT RAIN  45  43  93 S10       29.65S
* CONRAD       CLOUDY    43  39  86 NW5        N/A
* DEARBORN     N/A       45  43  93 S2         N/A
* EAST GLACIER N/A       38  34  86 W21G31     N/A   WCI  28
* MONARCH      N/A       40  33  76 NW4        N/A
* PENDROY      N/A       43  35  73 NW6        N/A
* ROGERS PASS  N/A       38  35  89 SE13G22    N/A   WCI  30
* SAINT MARY   N/A       40  32  73 S8G18      N/A   WCI  35
* SWEET GRASS  N/A       42  38  86 SW8        N/A
* WHITE SULPH  N/A       46  29  52 NW6G14     N/A
$$

MTZ011-013-016-021-035-040-045-047-050-051-181100-
NORTH CENTRAL MONTANA
CITY           SKY/WX    TMP DP  RH WIND       PRES   REMARKS
HAVRE          LGT RAIN  48  41  77 SW3       29.63R
LEWISTOWN      CLOUDY    45  32  60 SE6       29.65F
* CHINOOK      MOCLDY    45  43  93 E6        29.65S
* FORT BENTON  CLOUDY    48  43  83 S5        29.67R
* MALTA APT    PTCLDY    46  37  71 E5        29.67F
* CHESTER      N/A       43  39  86 S4         N/A
* DENTON       N/A       45  34  65 S8         N/A
* GEYSER       N/A       42  40  93 SW5        N/A
* JUDITH GAP   N/A       41  30  65 SW9        N/A
* LOMA         N/A       47  43  86 NW2        N/A
$$

MTZ017>020-022>027-061-062-181100-
NORTHEAST MONTANA
CITY           SKY/WX    TMP DP  RH WIND       PRES   REMARKS
GLASGOW        CLOUDY    41  36  82 E18       29.73F
GLENDIVE       CLOUDY    39  30  70 E6        29.83F WCI  35
JORDAN         PTCLDY    45  37  74 E7        29.71F
SIDNEY         CLOUDY    39  27  62 SE12      29.88F WCI  32
WOLF POINT     CLOUDY    45  30  56 E14       29.80F
* BEAVER HILL  N/A       35  26  70 E27G38     N/A   WCI  22
* CIRCLE       N/A       43  34  71 N/A        N/A
* LINDSAY DVD  N/A       38  31  76 E12        N/A   WCI  30
* NAVAJO       N/A       34  33  96 SE14       N/A   WCI  24
* SACO         N/A       43  34  71 NE19       N/A
$$

MTZ028>042-056>058-181100-
SOUTHCENTRAL AND SOUTHEAST MONTANA
CITY           SKY/WX    TMP DP  RH WIND       PRES   REMARKS
BAKER          MOCLDY    34  27  76 E15       29.83F WCI  24
BILLINGS       PTCLDY    45  30  56 N5        29.66F
LIVINGSTON     CLOUDY    46  30  54 CALM      29.66F
MILES CITY     CLOUDY    46  36  68 SE20      29.73F
* EKALAKA APT  MOCLDY    36  28  73 E15       29.78F WCI  27
* LAUREL APT   PTCLDY    48  25  41 W6         N/A
* ROUNDUP APT  PTCLDY    43  28  56 N/A        N/A
* HYSHAM       N/A       50  24  36 N/A        N/A
* LAME DEER    N/A       44  29  56 S9         N/A
* REED POINT   N/A       37  33  85 N/A        N/A
* ROSCOE HILL  N/A       54  15  21 S11        N/A
$$

REGIONAL REPORTS...DAKOTAS
CITY           SKY/WX    TMP DP  RH WIND       PRES   REMARKS
WILLISTON      CLOUDY    37  27  67 SE10      29.91F WCI  30
DICKINSON      MOCLDY    30  21  69 SE20      29.89F WCI  17
CROSBY         MOCLDY    36  27  70 E14G24    29.96F WCI  27
TIOGA          CLOUDY    34  23  64 SE20G28   29.99F WCI  23
WATFORD CITY   CLOUDY    36  23  59 SE15G23   29.90F WCI  27
BISMARCK       CLEAR     34  21  59 E13       30.07F WCI  25
GRAND FORKS    CLOUDY    30  18  61 SE6       30.28S WCI  24
FARGO          CLOUDY    34  23  64 S7        30.28R WCI  28
BUFFALO SD     PTCLDY    32  27  82 SE8       29.80F WCI  25
RAPID CITY     PTCLDY    34  30  85 CALM      29.85F
$$

REGIONAL REPORTS...WYOMING/IDAHO/WASHINGTON
CITY           SKY/WX    TMP DP  RH WIND       PRES   REMARKS
GILLETTE       PTCLDY    39  34  82 S14       29.78F WCI  31
SHERIDAN       MOCLDY    37  32  82 NW6       29.75S WCI  32
CODY           CLOUDY    46  27  48 S12       29.79R
YELLOWSTONE LA MOCLDY    34  30  85 VRB6      29.93S WCI  29
SALMON         CLOUDY    45  39  80 SW3       29.77R
MULLAN PASS    LGT SNOW  30  30 100 SW15G26   29.72S VSB 3/4  WCI  19
SAND POINT     CLOUDY    45  45 100 SW7       29.70S
SPOKANE        CLOUDY    45  39  80 SW23G30   29.74R
$$

REGIONAL REPORTS...ALBERTA
CITY           SKY/WX    TMP DP  RH WIND       PRES   REMARKS
CALGARY        FOG       30  30 100 N8        29.59F VSB 1/2  WCI  22
LETHBRIDGE     CLOUDY    39  36  89 SW9       29.59F WCI  33
MEDICINE HAT   MOCLDY    48  37  66 S8        29.60F
EDMONTON       LGT SNOW  28  27  96 NE6       29.70F VSB 1    WCI  21
WATERTON GATE  N/A       41  34  76 SW17G25    N/A
CARDSTON       N/A       37  36  96 S6         N/A   WCI  32
MILK RIVER     N/A       37  34  89 W5         N/A   WCI  33
$$

REGIONAL REPORTS...SASKATCHEWAN
CITY           SKY/WX    TMP DP  RH WIND       PRES   REMARKS
SWIFT CURRENT  CLOUDY    36  32  85 SE17G23   29.69F WCI  26
REGINA         CLOUDY    34  23  64 SE23G32   29.91F WCI  22
VAL MARIE      N/A       41  32  70 SE15G21    N/A
ASSINIBOIA     N/A       34  32  92 SE16G22    N/A   WCI  24
CORONACH       N/A       36  34  92 SE14       N/A   WCI  27

$$




USA.gov is the U.S. government's official web portal to all federal, state and local government web resources and services.